Location: Altamira
(10.5079°N, 66.8544°W)
Time: 17:50:02
(UTC+00:00)

NOSS 2-1 (C) - Pass Details

Date: 13 December 2025
Orbit: 375 x 1685 km, 63.3° (Epoch: 14 January)

Event Time Altitude Azimuth Distance (km) Brightness Sun altitude
Rises 22:39:43 0° 207° (SSW) 3,911 8.5 -8.2°
Reaches altitude 10° 22:42:49 10° 208° (SSW) 2,727 7.7 -8.9°
Maximum altitude 22:49:00 74° 293° (WNW) 775 4.2 -10.3°
Drops below altitude 10° 22:53:19 10° 18° (NNE) 1,927 5.7 -11.3°
Enters shadow 22:54:10 - 19° (NNE) 2,263 6.1 -11.5°
